Lowell, ID

9:45 PM MDT on May 25, 2017 (GMT -0600)
Lowell

Weather History for KP69 - March, 2014

Change the Weather History Date:

Tuesday, March 25, 2014

  Actual Average Record
Temperature  
Mean Temperature 44 °F -  
Max Temperature 57 °F 54 °F 71 °F (1999)
Min Temperature 32 °F 33 °F 27 °F (2013)
Degree Days  
Heating Degree Days 20    
Moisture  
Dew Point 32 °F    
Average Humidity 70    
Maximum Humidity 88    
Minimum Humidity 37    
Precipitation  
Precipitation 0.00 in - - ()
Sea Level Pressure  
Sea Level Pressure 29.83 in    
Wind  
Wind Speed 4 mph (NNW)    
Max Wind Speed 7 mph    
Max Gust Speed -    
Averages and records for this station are not official NWS values.
T = Trace of Precipitation, MM = Missing Value Source: NWS Daily Summary

Daily Weather History Graph

Daily Weather History Graph

Search for Another Location

Airport or City:

Trip Planner

Search our weather history database for the weather conditions in past years. The results will help you decide how hot, cold, wet, or windy it might be!

Date:

Astronomy

Mar. 25, 2014 Rise Set
Actual Time 7:34 AM MDT 8:01 PM MDT
Civil Twilight 7:05 AM MDT 8:30 PM MDT
Nautical Twilight 6:29 AM MDT 9:06 PM MDT
Astronomical Twilight 5:53 AM MDT 9:42 PM MDT
Moon 4:15 AM MDT (3/25) 2:21 PM MDT (3/25)
Length of Visible Light 13h 25m
Length of Day
12h 26m
Waning Crescent, 31% of the Moon is Illuminated
Mar 25
Waning Crescent
Mar 30
New
Apr 7
First Quarter
Apr 15
Full
Apr 22
Last Quarter

Hourly Weather History & Observations

Time (MDT) Temp. Windchill Dew Point Humidity Pressure Visibility Wind Dir Wind Speed Gust Speed Precip Events Conditions
12:52 AM 35.1 °F 32.2 °F 30.0 °F 82% 30.12 in - NNW 3.5 mph - N/A   Unknown
1:52 AM 34.0 °F 29.8 °F 30.0 °F 85% 30.09 in - NW 4.6 mph - N/A   Unknown
2:52 AM 34.0 °F 29.8 °F 28.9 °F 82% 30.06 in - North 4.6 mph - N/A   Unknown
3:52 AM 33.1 °F 27.7 °F 28.9 °F 85% 30.05 in - NNW 5.8 mph - N/A   Unknown
4:52 AM 33.1 °F 27.7 °F 28.9 °F 85% 30.02 in - North 5.8 mph - N/A   Unknown
5:52 AM 32.0 °F 28.7 °F 28.9 °F 88% 30.01 in - Variable 3.5 mph - N/A   Unknown
6:52 AM 32.0 °F 25.6 °F 28.0 °F 85% 30.00 in - NW 6.9 mph - N/A   Unknown
7:52 AM 32.0 °F 26.4 °F 28.0 °F 85% 29.97 in - North 5.8 mph - N/A   Unknown
8:52 AM 32.0 °F 25.6 °F 28.0 °F 85% 29.94 in - NNW 6.9 mph - N/A   Unknown
9:52 AM 35.1 °F 29.3 °F 28.9 °F 78% 29.92 in - NNW 6.9 mph - N/A   Unknown
10:52 AM 37.9 °F 32.7 °F 30.0 °F 73% 29.89 in - NNW 6.9 mph - N/A   Unknown
11:52 AM 44.1 °F 42.5 °F 30.0 °F 58% 29.83 in - North 3.5 mph - N/A   Unknown
12:52 PM 53.1 °F - 28.9 °F 40% 29.77 in - Variable 3.5 mph - N/A   Unknown
1:52 PM 55.0 °F - 28.9 °F 37% 29.71 in - Calm Calm - N/A   Unknown
2:52 PM 55.9 °F - 30.9 °F 39% 29.67 in - Calm Calm - N/A   Unknown
3:52 PM 54.0 °F - 35.1 °F 49% 29.65 in - Variable 3.5 mph - N/A   Unknown
4:52 PM 57.9 °F - 37.0 °F 46% 29.61 in - Calm Calm - N/A   Unknown
5:52 PM 54.0 °F - 39.9 °F 59% 29.62 in - Calm Calm - N/A   Unknown
6:52 PM 50.0 °F - 39.9 °F 68% 29.65 in - Calm Calm - N/A   Unknown
7:52 PM 48.0 °F - 39.0 °F 71% 29.64 in - North 5.8 mph - N/A   Unknown
8:52 PM 46.9 °F - 37.9 °F 71% 29.63 in - North 4.6 mph - N/A   Unknown
9:52 PM 46.0 °F - 37.0 °F 71% 29.64 in - Calm Calm - N/A   Unknown
10:52 PM 45.0 °F - 37.9 °F 76% 29.68 in - Calm Calm - N/A   Unknown
11:52 PM 43.0 °F - 39.0 °F 86% 29.70 in - Calm Calm - N/A   Unknown